Powrót do katalogu

KORSAT-4

AktywnyNaukaVLEO
NORAD 66293·PAYLOAD·🇰🇷 South Korea

Wystrzelony Nov 2, 2025 z Cape Canaveral Space Force Station

Loading…

Następne Przeloty (najbliższe 24 godziny)

TLE

Starzejące sięSource: Space-Track

Epoka: Sep 13, 2026, 11:30 UTC

1 66293U 25248A   26256.47950577  .00000965  00000-0  97652-4 0  9995
2 66293  45.4103  61.8065 0001608 286.7860  73.2842 14.98747001 47304

Śledź KORSAT-4 w czasie rzeczywistym z AllMySat

Download on the App Store